This is the latest recevied weather packets stored in our database for station/object K8DJB-1. If no packets are shown the sender has not sent any weather packets the latest 10 day(s).
| Time | Temp. | Humidity | Pressure | Rain* | Wind** | Luminosity | Snow |
|---|---|---|---|---|---|---|---|
| 1778010815 | 11.67° C | 43% | 1008.3 hPa | 0 mm | - | - | - |
| 1778010515 | 11.11° C | 44% | 1008.3 hPa | 0 mm | - | - | - |
| 1778010215 | 11.11° C | 43% | 1008.2 hPa | 0 mm | - | - | - |
| 1778009915 | 11.11° C | 44% | 1008.1 hPa | 0 mm | - | - | - |
| 1778009615 | 11.67° C | 42% | 1008.2 hPa | 0 mm | - | - | - |
| 1778009315 | 11.67° C | 44% | 1008.3 hPa | 0 mm | - | - | - |
| 1778009015 | 11.67° C | 42% | 1008.3 hPa | 0 mm | - | - | - |
| 1778008715 | 11.67° C | 43% | 1008.1 hPa | 0 mm | - | - | - |
| 1778008415 | 11.67° C | 42% | 1008.1 hPa | 0 mm | - | - | - |
| 1778008115 | 11.67° C | 45% | 1008 hPa | 0 mm | - | - | - |
| 1778007815 | 11.11° C | 43% | 1008 hPa | 0 mm | - | - | - |
| 1778007515 | 11.67° C | 42% | 1007.9 hPa | 0 mm | - | - | - |
| 1778007215 | 11.67° C | 42% | 1007.7 hPa | 0 mm | - | - | - |
| 1778006915 | 11.67° C | 42% | 1007.8 hPa | 0 mm | - | - | - |
| 1778006615 | 11.67° C | 43% | 1007.7 hPa | 0 mm | - | - | - |
| 1778006315 | 11.67° C | 43% | 1007.9 hPa | 0 mm | - | - | - |
| 1778006015 | 11.67° C | 42% | 1007.8 hPa | 0 mm | - | - | - |
| 1778005715 | 11.11° C | 40% | 1007.8 hPa | 0 mm | - | - | - |
| 1778005415 | 11.67° C | 41% | 1007.8 hPa | 0 mm | - | - | - |
| 1778005115 | 11.11° C | 42% | 1007.6 hPa | 0 mm | - | - | - |
| 1778004815 | 11.11° C | 42% | 1007.6 hPa | 0 mm | - | - | - |
| 1778004515 | 11.67° C | 40% | 1007.4 hPa | 0 mm | - | - | - |
| 1778004215 | 12.22° C | 41% | 1007.6 hPa | 0 mm | - | - | - |
| 1778003915 | 11.67° C | 41% | 1007.6 hPa | 0 mm | - | - | - |
| 1778003615 | 11.67° C | 42% | 1007.6 hPa | 0 mm | - | - | - |
* Rain latest hour (hover to see other rain measurements)
** Current wind speed in m/s (hover to see current wind gust speed)